H1 CPF  1  ESA 2017  3 24 10  5831 galileo202           
H2  1405002 7202    40129 2017  3 23 23 59 42 2017  3 28 23 59 42   900 1 1  0 0 0
H9
10 0 57835  86382.000000  0     -10266928.712      18445950.338     -24331778.173
10 0 57836    882.000000  0     -11295002.533      17232140.919     -24514984.625
10 0 57836   1782.000000  0     -12417043.888      16064374.960     -24457268.856
10 0 57836   2682.000000  0     -13617088.260      14956873.994     -24153799.796
10 0 57836   3582.000000  0     -14875829.439      13920929.803     -23601059.330
10 0 57836   4482.000000  0     -16170854.892      12964482.762     -22797046.806
10 0 57836   5382.000000  0     -17476934.044      12091727.638     -21741546.409
10 0 57836   6282.000000  0     -18766366.874      11302758.829     -20436465.918
10 0 57836   7182.000000  0     -20009403.213      10593271.257     -18886255.170
10 0 57836   8082.000000  0     -21174746.716       9954338.688     -17098410.823
10 0 57836   8982.000000  0     -22230161.514       9372298.299     -15084069.867
10 0 57836   9882.000000  0     -23143203.642       8828778.648     -12858686.338
10 0 57836  10782.000000  0     -23882102.331       8300917.403     -10442772.227
10 0 57836  11682.000000  0     -24416816.463       7761823.607      -7862662.737
10 0 57836  12582.000000  0     -24720285.833       7181344.309      -5151236.536
10 0 57836  13482.000000  0     -24769881.146       6527192.430      -2348483.575
10 0 57836  14382.000000  0     -24549025.865       5766475.519        498229.609
10 0 57836  15282.000000  0     -24048913.008       4867626.391       3334384.968
10 0 57836  16182.000000  0     -23270170.724       3802671.263       6099231.537
10 0 57836  17082.000000  0     -22224251.217       2549680.562       8727569.854
10 0 57836  17982.000000  0     -20934250.939       1095146.337      11152474.679
10 0 57836  18882.000000  0     -19434851.610       -564051.238      13308852.674
10 0 57836  19782.000000  0     -17771138.709      -2419446.402      15137506.471
10 0 57836  20682.000000  0     -15996223.466      -4450842.924      16589168.930
10 0 57836  21582.000000  0     -14167838.956      -6627332.555      17627870.949
10 0 57836  22482.000000  0     -12344326.500      -8909359.285      18233079.658
10 0 57836  23382.000000  0     -10580582.058     -11251504.729      18400288.778
10 0 57836  24282.000000  0      -8924531.974     -13605556.678      18140076.868
10 0 57836  25182.000000  0      -7414557.982     -15923433.871      17475950.807
10 0 57836  26082.000000  0      -6078059.228     -18159651.638      16441465.384
10 0 57836  26982.000000  0      -4931110.988     -20273167.907      15077128.036
10 0 57836  27882.000000  0      -3979019.607     -22228590.923      13427497.349
10 0 57836  28782.000000  0      -3217501.931     -23996825.883      11538730.416
10 0 57836  29682.000000  0      -2634220.824     -25555282.251       9456685.738
10 0 57836  30582.000000  0      -2210456.065     -26887768.352       7225577.389
10 0 57836  31482.000000  0      -1922753.412     -27984182.059       4887110.716
10 0 57836  32382.000000  0      -1744454.563     -28840080.163       2480002.368
10 0 57836  33282.000000  0      -1647058.086     -29456183.451         39785.550
10 0 57836  34182.000000  0      -1601394.217     -29837853.620      -2401186.808
10 0 57836  35082.000000  0      -1578616.656     -29994562.987      -4813611.178
10 0 57836  35982.000000  0      -1551025.293     -29939367.861      -7171027.760
10 0 57836  36882.000000  0      -1492738.319     -29688390.235      -9449577.861
10 0 57836  37782.000000  0      -1380232.936     -29260309.002     -11627750.181
10 0 57836  38682.000000  0      -1192772.537     -28675860.176     -13686132.904
10 0 57836  39582.000000  0       -912736.035     -27957344.943     -15607182.108
10 0 57836  40482.000000  0       -525862.499     -27128144.371     -17375012.673
10 0 57836  41382.000000  0        -21421.942     -26212239.802     -18975215.085
10 0 57836  42282.000000  0        607679.056     -25233738.430     -20394699.833
10 0 57836  43182.000000  0       1364849.926     -24216403.924     -21621570.289
10 0 57836  44082.000000  0       2249821.428     -23183192.472     -22645024.610
10 0 57836  44982.000000  0       3258699.422     -22155795.002     -23455287.377
10 0 57836  45882.000000  0       4384063.808     -21154186.821     -24043572.081
10 0 57836  46782.000000  0       5615110.183     -20196186.399     -24402076.260
10 0 57836  47682.000000  0       6937832.486     -19297025.632     -24524011.919
10 0 57836  48582.000000  0       8335245.685     -18468934.726     -24403674.898
10 0 57836  49482.000000  0       9787648.255     -17720745.897     -24036557.983
10 0 57836  50382.000000  0      11272925.137     -17057521.591     -23419513.741
10 0 57836  51282.000000  0      12766892.869     -16480215.020     -22550974.236
10 0 57836  52182.000000  0      14243689.897     -15985373.651     -21431235.728
10 0 57836  53082.000000  0      15676216.640     -15564900.241     -20062816.934
10 0 57836  53982.000000  0      17036631.776     -15205891.169     -18450898.867
10 0 57836  54882.000000  0      18296913.318     -14890578.510     -16603852.088
10 0 57836  55782.000000  0      19429495.176     -14596410.471     -14533852.195
10 0 57836  56682.000000  0      20407991.484     -14296314.184     -12257575.149
10 0 57836  57582.000000  0      21208021.120     -13959194.330      -9796948.900
10 0 57836  58482.000000  0      21808141.917     -13550728.479      -7179914.812
10 0 57836  59382.000000  0      22190895.635     -13034521.456      -4441120.589
10 0 57836  60282.000000  0      22343947.840     -12373670.501      -1622426.640
10 0 57836  61182.000000  0      22261278.118     -11532762.793       1226934.790
10 0 57836  62082.000000  0      21944334.035     -10480269.309       4050742.375
10 0 57836  62982.000000  0      21403009.731      -9191210.646       6786910.962
10 0 57836  63882.000000  0      20656257.810      -7649858.450       9369513.391
10 0 57836  64782.000000  0      19732112.120      -5852125.072      11731733.481
10 0 57836  65682.000000  0      18666916.858      -3807226.321      13809592.290
10 0 57836  66582.000000  0      17503647.041      -1538226.768      15546061.288
10 0 57836  67482.000000  0      16289366.727        918776.593      16894987.217
10 0 57836  68382.000000  0      15072067.933       3516826.206      17824192.970
10 0 57836  69282.000000  0      13897298.146       6201343.761      18317239.427
10 0 57836  70182.000000  0      12805050.865       8913937.689      18373611.139
10 0 57836  71082.000000  0      11827332.549      11596208.922      18007425.995
10 0 57836  71982.000000  0      10986657.050      14193069.784      17245044.790
10 0 57836  72882.000000  0      10295519.637      16655275.557      16122090.307
10 0 57836  73782.000000  0       9756733.836      18941073.685      14680368.220
10 0 57836  74682.000000  0       9364414.183      21017038.118      12965061.771
10 0 57836  75582.000000  0       9105360.459      22858248.744      11022415.366
10 0 57836  76482.000000  0       8960624.310      24448003.270       8897981.338
10 0 57836  77382.000000  0       8907090.933      25777232.864       6635404.786
10 0 57836  78282.000000  0       8918965.095      26843756.327       4275666.639
10 0 57836  79182.000000  0       8969099.422      27651467.325       1856685.341
10 0 57836  80082.000000  0       9030138.948      28209514.353       -586819.865
10 0 57836  80982.000000  0       9075479.383      28531506.903      -3023287.260
10 0 57836  81882.000000  0       9080050.055      28634763.542      -5424158.300
10 0 57836  82782.000000  0       9020938.870      28539606.658      -7763659.396
10 0 57836  83682.000000  0       8877878.498      28268702.543     -10018554.347
10 0 57836  84582.000000  0       8633612.345      27846442.634     -12167890.719
10 0 57836  85482.000000  0       8274156.948      27298360.792     -14192755.227
10 0 57836  86382.000000  0       7788975.022      26650581.646     -16076047.364
10 0 57837    882.000000  0       7171071.046      25929295.719     -17802276.613
10 0 57837   1782.000000  0       6417019.079      25160257.940     -19357386.121
10 0 57837   2682.000000  0       5526930.682      24368307.038     -20728604.258
10 0 57837   3582.000000  0       4504369.273      23576904.189     -21904324.813
10 0 57837   4482.000000  0       3356216.005      22807690.051     -22874016.372
10 0 57837   5382.000000  0       2092491.284      22080060.046     -23628161.681
10 0 57837   6282.000000  0        726135.219      21410758.409     -24158228.241
10 0 57837   7182.000000  0       -727250.314      20813492.259     -24456672.145
10 0 57837   8082.000000  0      -2249695.914      20298567.738     -24516978.032
10 0 57837   8982.000000  0      -3821193.562      19872551.285     -24333739.101
10 0 57837   9882.000000  0      -5420059.053      19537960.445     -23902782.270
10 0 57837  10782.000000  0      -7023327.285      19292990.400     -23221344.778
10 0 57837  11682.000000  0      -8607180.205      19131284.903     -22288309.642
10 0 57837  12582.000000  0     -10147407.793      19041763.631     -21104508.255
10 0 57837  13482.000000  0     -11619902.945      19008522.484     -19673098.666
10 0 57837  14382.000000  0     -13001191.668      19010829.211     -18000027.201
10 0 57837  15282.000000  0     -14269000.238      19023244.131     -16094578.285
10 0 57837  16182.000000  0     -15402860.823      19015904.498     -13970011.385
10 0 57837  17082.000000  0     -16384755.979      18955020.585     -11644273.476
10 0 57837  17982.000000  0     -17199799.608      18803640.409      -9140758.418
10 0 57837  18882.000000  0     -17836946.479      18522745.090      -6489059.520
10 0 57837  19782.000000  0     -18289712.701      18072733.302      -3725627.506
10 0 57837  20682.000000  0     -18556874.219      17415334.044       -894204.972
99